Flag for U.S.A. Weather past 2 weeks in Orlando, Florida, U.S.A.

Now
75 °F

Clear.


Feels Like: 72 °F
Forecast: 74 / 89 °F
Wind: 5 mph from East

Location: Orlando Executive Airport

Current Time: Aug 28, 2015 at 8:57:03 AM

Latest Report: Aug 28, 2015 at 7:53 AM


Visibility: 10 mi

Pressure: 30.03 "Hg

Humidity: 100%

Dew point: 75 °F

Location of OrlandoLocation

Historic Weather in Orlando — Graph

°F

Orlando temperature yesterday

Maximum temperature yesterday: 84 °F (at 11:53 AM)
Minimum temperature yesterday: 73 °F (at 6:53 AM)
Average temperature yesterday: 77 °F

Past Weeks' High & Low Weather Summary

 TemperatureHumidityPressure
High96 °F (Aug 25, 5:53 PM)100% (Aug 14, 12:53 AM)30.13 "Hg (Aug 14, 12:53 AM)
Low73 °F (Aug 14, 2:53 AM)43% (Aug 25, 5:53 PM)29.87 "Hg (Aug 25, 6:53 PM)
Average82 °F84%30.01 "Hg
* Reported Aug 13 7:53 AM — Aug 28 7:53 AM, Orlando, Weather by CustomWeather, © 2015

Note: Actual official high and low records may vary slightly from our data, if they occured in-between our weather recording intervals... More about our weather records

Advertising

Orlando weather history for previous 24 hours

 ConditionsComfort  
Time TempWeatherWind HumidityBarometerVisibility
7:53 AM
Fri, Aug 28
75 °FClear.5 mph100%30.03 "Hg10 mi
6:53 AM74 °FClear.5 mph100%30.01 "Hg10 mi
5:53 AM74 °FClear.No wind100%29.99 "Hg10 mi
4:53 AM74 °FClear.No wind100%29.98 "Hg10 mi
3:53 AM74 °FClear.No wind100%29.97 "Hg10 mi
2:53 AM74 °FClear.No wind100%29.98 "Hg10 mi
1:53 AM74 °FClear.No wind97%30.01 "Hg10 mi
12:53 AM74 °FClear.3 mph100%30.01 "Hg10 mi
11:53 PM
Thu, Aug 27
76 °FClear.6 mph94%30.01 "Hg10 mi
10:53 PM76 °FClear.3 mph94%30.00 "Hg10 mi
9:53 PM77 °FClear.No wind90%29.98 "Hg10 mi
8:53 PM77 °FClear.7 mph88%29.96 "Hg10 mi
7:53 PM78 °FSunny.5 mph82%29.95 "Hg10 mi
6:53 PM81 °FSunny.5 mph79%29.95 "Hg10 mi
5:53 PM81 °FSunny.6 mph82%29.95 "Hg10 mi
4:53 PM80 °FSunny.7 mph85%29.93 "Hg10 mi
3:53 PM78 °FPassing clouds.5 mph90%29.95 "Hg10 mi
2:53 PM75 °FLight rain. Fog.No wind96%29.97 "Hg5 mi
1:53 PM74 °FThunderstorms. Fog.17 mph94%29.99 "Hg5 mi
1:02 PM83 °FThundershowers. Broken clouds.9 mph82%29.97 "Hg10 mi
11:53 AM84 °FSunny.3 mph77%29.99 "Hg10 mi
10:53 AM83 °FPassing clouds.6 mph77%29.99 "Hg10 mi
9:53 AM80 °FSunny.6 mph87%29.96 "Hg10 mi
8:53 AM77 °FPartly sunny.3 mph96%29.96 "Hg10 mi
Weather by CustomWeather, © 2015

See weather overviewHow to use our weather pages